User: anonymous   Login
Location: Vancouver
(49.2500°N, 123.1330°W)
Time: 00:23:23
(UTC-07:00)
Language:

SO-67 - Orbit

View from above orbital plane
View from above orbital plane
View from above satellite
View from above satellite

Ground track
Ground track

The orbit data is extracted from the following two-line orbital elements,

1 35870U 09049F   17083.78310208 +.00006786 +00000-0 +11256-3 0  9998
2 35870 097.1091 101.3017 0003536 058.1414 052.6561 15.52446510420122
Epoch (UTC): 24 March 2017 18:47:40
Eccentricity: 0.0003536
inclination: 97.1091°
perigee height: 407 km
apogee height: 412 km
right ascension of ascending node: 101.3017°
argument of perigee: 58.1414°
revolutions per day: 15.52446510
mean anomaly at epoch: 52.6561°
orbit number at epoch: 42012

The dashed part of the orbit path shows where the satellite is in the earth's shadow,  

DLR